スコッティ彗星

P/2011 A2 ( Scotti )

English version
Home page
Updated on January 20, 2013

---------------------------------------------------------------------

・ プロフィール

発見日 2011年1月11日
発見光度 20.2等
発見者 J. V. Scotti (Spaewatch, Kitt Peak)

・ 写真集

・ 軌道要素

Epoch 2010 Dec. 30.0 TT = JDT 2455560.5
T 2010 Dec. 22.50386 TT                                 MPC
q   1.5587814            (2000.0)            P               Q
n   0.17980318     Peri.   94.58852     -0.85750916     -0.51051185
a   3.1088837      Node    54.72681     +0.43566433     -0.78641290
e   0.4986041      Incl.    4.47393     +0.27363229     -0.34775335
P   5.48
From 221 observations 2011 Jan. 11-May 12, mean residual 0".6.

・ 光度変化

        m1 = 15.5 + 5 logΔ + 10.0 log r

---------------------------------------------------------------------

軌道要素はM.P.E.C. 2013-A29に掲載されたものです。
光度グラフはComet for Windowsで作成したものです。

---------------------------------------------------------------------

Copyright(C) Seiichi Yoshida (comet@aerith.net). All rights reserved.